Regional Weather Roundup
Issued by NWS

Home | Current Version | Previous Version | Graphics & Text | Print | Product List | Glossary On
Versions: 1 2 3 4 5 6 7 8 9 10 11 12 13 14 15 16 17 18 19 20 21 22 23 24 25 26 27 28 29 30 31 32 33 34 35 36 37 38 39 40 41 42 43 44
000
ASUS45 KPSR 050010
RWRAZ

ARIZONA REGIONAL HOURLY WEATHER ROUNDUP
NATIONAL WEATHER SERVICE PHOENIX AZ
500 PM MST WED MAR 04 2015

NOTE: FAIR INDICATES FEW OR NO CLOUDS BELOW 12,000 FEET WITH NO
SIGNIFICANT WEATHER AND/OR OBSTRUCTIONS TO VISIBILITY.

AZZ001>003-036-050100-
NORTHWEST ARIZONA

CITY           SKY/WX    TMP DP  RH WIND       PRES   REMARKS
BULLHEAD CITY  SUNNY     63  23  22 N24G30    30.10S
KINGMAN        SUNNY     53  25  33 N17       30.11R
6HR MIN TEMP:  45; 6HR MAX TEMP:  54;

$$

AZZ004>008-015-016-018-050100-
NORTH CENTRAL ARIZONA

CITY           SKY/WX    TMP DP  RH WIND       PRES   REMARKS
GRAND CANYON   SUNNY     39   9  29 NE5       30.14R
6HR MIN TEMP:  33; 6HR MAX TEMP:  41;

PRESCOTT       SUNNY     52  17  25 N9        30.08S
6HR MIN TEMP:  42; 6HR MAX TEMP:  53;

FLAGSTAFF      SUNNY     37  13  37 NE6       30.12R WCI  32
6HR MIN TEMP:  31; 6HR MAX TEMP:  38;

PAYSON         SUNNY     50  21  32 N10G17    30.09R
PAGE           SUNNY     47  13  25 SE5       30.14R
6HR MIN TEMP:  41; 6HR MAX TEMP:  48;

$$

AZZ009>014-017-050100-
NORTHEAST ARIZONA

CITY           SKY/WX    TMP DP  RH WIND       PRES   REMARKS
WINSLOW        SUNNY     49  20  31 NW12      30.11R
6HR MIN TEMP:  42; 6HR MAX TEMP:  50;

SAINT JOHNS    SUNNY     47  16  29 N17G23    30.06R
6HR MIN TEMP:  41; 6HR MAX TEMP:  49;

WINDOW ROCK    SUNNY     40  10  29 NW10      30.07R WCI  33
6HR MIN TEMP:  38; 6HR MAX TEMP:  43;

SHOW LOW       SUNNY     39  16  38 N9        30.11R WCI  33
$$

AZZ023-050100-
GREATER PHOENIX AREA

CITY           SKY/WX    TMP DP  RH WIND       PRES   REMARKS
PHOENIX        MOSUNNY   68  29  23 N7        30.00R
6HR MIN TEMP:  60; 6HR MAX TEMP:  70;

BUCKEYE        SUNNY     66  32  28 SW7       30.03S
GLENDALE       MOSUNNY   68  32  26 S5        30.03R
LUKE AFB       SUNNY     67  35  29 SW9       30.01R
6HR MIN TEMP:  62; 6HR MAX TEMP:  68; 6HR PCP: TRACE;

DEER VALLEY    SUNNY     66  26  22 W6        30.00R
6HR MIN TEMP:  58; 6HR MAX TEMP:  67;

SCOTTSDALE     SUNNY     67  28  23 W5        30.01S
6HR MIN TEMP:  58; 6HR MAX TEMP:  68;

MESA-FALCON    MOSUNNY   66  30  26 W9        30.00S
CHANDLER       MOSUNNY   86  28  12 NW7       30.01S
$$

AZZ027-028-050100-
SOUTHWEST MARICOPA COUNTY AND PINAL COUNTY

CITY           SKY/WX    TMP DP  RH WIND       PRES   REMARKS
CASA GRANDE    SUNNY     66  28  24 N9G16     30.02R
6HR MIN TEMP:  57; 6HR MAX TEMP:  66;

GILA BEND      SUNNY     67  34  29 NW3       30.03S
6HR MIN TEMP:  60; 6HR MAX TEMP:  69;

$$

AZZ503-504-507>509-050100-
SOUTHEAST ARIZONA

CITY           SKY/WX    TMP DP  RH WIND       PRES   REMARKS
TUCSON         SUNNY     62  29  28 NW13      30.04R
6HR MIN TEMP:  55; 6HR MAX TEMP:  63;

DAVIS-MONTHAN  SUNNY     61  30  31 NW14      30.01R
6HR MIN TEMP:  54; 6HR MAX TEMP:  62;

RYAN FIELD       N/A     63  32  31 NW12G21   30.04R
NOGALES        MOSUNNY   58  28  32 NW13G22   30.02R
6HR MIN TEMP:  52; 6HR MAX TEMP:  61;

SIERRA VISTA   MOSUNNY   54  27  35 NW14      30.03R
                                      6HR PCP: TRACE;

DOUGLAS        CLOUDY    54  34  46 S10       30.02R
6HR MIN TEMP:  51; 6HR MAX TEMP:  56; 6HR PCP: TRACE;

SAFFORD        SUNNY     62  23  22 W21G30    29.96R
6HR MIN TEMP:  56; 6HR MAX TEMP:  64;

$$

AZZ020-021-025-026-031-050100-
SOUTHWEST ARIZONA

CITY           SKY/WX    TMP DP  RH WIND       PRES   REMARKS
YUMA           SUNNY     69  24  18 N13       30.06S
6HR MIN TEMP:  65; 6HR MAX TEMP:  70;

$$

CAZ031-033-041-043-047-048-061-050100-
SOUTHERN CALIFORNIA

CITY           SKY/WX    TMP DP  RH WIND       PRES   REMARKS
DOWNTOWN L.A.  SUNNY     69  37  30 W7        30.06S
6HR MIN TEMP:  65; 6HR MAX TEMP:  72;

L.A. AIRPORT   MOSUNNY   64  47  53 W13       30.08R
6HR MIN TEMP:  62; 6HR MAX TEMP:  68;

SAN DIEGO      MOSUNNY   66  47  50 NW8       30.08S
6HR MIN TEMP:  62; 6HR MAX TEMP:  68;

BURBANK        SUNNY     67  33  28 S10       30.06R
6HR MIN TEMP:  62; 6HR MAX TEMP:  70;

ONTARIO        MOSUNNY   70  27  20 CALM      30.06S
6HR MIN TEMP:  63; 6HR MAX TEMP:  72;

RIVERSIDE      SUNNY     72  10   9 N9        30.06S
6HR MIN TEMP:  64; 6HR MAX TEMP:  73;

PALM SPRINGS   SUNNY     72  10   9 VRB3      30.08S
6HR MIN TEMP:  64; 6HR MAX TEMP:  73;

EL CENTRO NAS  MOSUNNY   70  22  16 N5        30.07S
6HR MIN TEMP:  65; 6HR MAX TEMP:  71;

IMPERIAL       SUNNY     70  24  17 NW7       30.06S
6HR MIN TEMP:  64; 6HR MAX TEMP:  70;

BLYTHE         SUNNY     68  24  19 N10       30.07S
6HR MIN TEMP:  60; 6HR MAX TEMP:  69;

$$

NVZ020-UTZ003-050100-
SOUTHERN NEVADA-UTAH

CITY           SKY/WX    TMP DP  RH WIND       PRES   REMARKS
LAS VEGAS      SUNNY     59  13  16 NE9       30.12S
6HR MIN TEMP:  51; 6HR MAX TEMP:  60;

SALT LAKE CITY MOSUNNY   38  19  46 NW8       30.25R WCI  32
6HR MIN TEMP:  34; 6HR MAX TEMP:  40;

$$

NMZ009-TXZ055-050100-
NEW MEXICO-WEST TEXAS

CITY           SKY/WX    TMP DP  RH WIND       PRES   REMARKS
ALBUQUERQUE    MOSUNNY   49  13  23 NW12      29.98R
6HR MIN TEMP:  44; 6HR MAX TEMP:  50;

EL PASO        PTSUNNY   60  26  27 NW15      29.94R
6HR MIN TEMP:  57; 6HR MAX TEMP:  62;

$$


........................KEY........................
SKY/WX - SKY CONDITION/WEATHER
TMP    - TEMPERATURE IN FAHRENHEIT
DP     - DEW POINT IN FAHRENHEIT
RH     - RELATIVE HUMIDITY IN PERCENT
WIND   - DIRECTION AND SPEED IN MILES PER HOUR (MPH)
VRB    - VARIABLE WIND DIRECTION
PRES   - MEAN SEA LEVEL PRESSURE IN INCHES OF MERCURY
         F - FALLING PRESSURE   R - RISING PRESSURE
         S - STEADY PRESSURE
VSB    - VISIBILITY IN MILES
HX     - HEAT INDEX IN FAHRENHEIT
WCI    - WIND CHILL INDEX IN FAHRENHEIT
TC     - TEMPERATURE IN CELSIUS WHICH IS ALSO KNOWN AS
         TEMPERATURE IN CENTIGRADE
AFB    - AIR FORCE BASE
         LUKE AFB IS LUKE AIR FORCE BASE
         DAVIS-MONTHAN IS DAVIS-MONTHAN AIR FORCE BASE
NAS    - NAVAL AIR STATION
         EL CENTRO NAS IS EL CENTRO NAVAL AIR STATION
N/A    - NOT AVAILABLE




USA.gov is the U.S. government's official web portal to all federal, state and local government web resources and services.